User: anonymous   Login
Location: Unspecified
(0.0000°N, 0.0000°E)
Time: 15:30:00
(UTC+00:00)
Language:

COSMOS 2497 - Orbit

View from above orbital plane
View from above orbital plane
View from above satellite
View from above satellite

Ground track
Ground track

The orbit data is extracted from the following two-line orbital elements,

1 39762U 14028B   18267.70911713 +.00000034 +00000-0 +17456-3 0  9998
2 39762 082.4462 077.2715 0020969 099.4882 028.1609 12.42889404196958
Epoch (UTC): 24 September 2018 17:01:07
Eccentricity: 0.0020969
inclination: 82.4462°
perigee height: 1478 km
apogee height: 1511 km
right ascension of ascending node: 77.2715°
argument of perigee: 99.4882°
revolutions per day: 12.42889404
mean anomaly at epoch: 28.1609°
orbit number at epoch: 19695

The dashed part of the orbit path shows where the satellite is in the earth's shadow,  

DLR